CW7104 Weather Reports


time (UTC)temp
C
wind
direction
speed
KPH
gust
KPH
rain 1hr
cm
rain 24hr
cm
rain mn
cm
humidity
%
barometer
mb
20260507220905 19 259 0.0 0.0 0.00 0.00 0.00 29 1015.8
20260507220405 19 29 0.0 0.0 0.00 0.00 0.00 30 1015.7
20260507215905 19 339 0.0 0.0 0.00 0.00 0.00 32 1015.7
20260507215405 18 15 0.0 0.0 0.00 0.00 0.00 31 1015.7
20260507214904 19 346 0.0 0.0 0.00 0.00 0.00 32 1015.7
20260507214405 18 271 0.0 0.0 0.00 0.00 0.00 29 1015.8
20260507212905 18 274 0.0 0.0 0.00 0.00 0.00 31 1015.8
20260507212404 18 339 0.0 0.0 0.00 0.00 0.00 33 1015.7
20260507211904 19 289 0.0 0.0 0.00 0.00 0.00 31 1015.6
20260507211404 20 339 0.0 0.0 0.00 0.00 0.00 32 1015.6
20260507210905 19 32 0.0 0.0 0.00 0.00 0.00 32 1015.6
20260507210404 19 54 0.0 0.0 0.00 0.00 0.00 33 1015.6
20260507205905 18 27 0.0 0.0 0.00 0.00 0.00 37 1015.6
20260507205404 18 347 0.0 0.0 0.00 0.00 0.00 31 1015.6
20260507204905 18 314 0.0 0.0 0.00 0.00 0.00 32 1015.7
20260507204404 18 284 0.0 0.0 0.00 0.00 0.00 32 1015.8
20260507203904 18 252 0.0 0.0 0.00 0.00 0.00 35 1015.8
20260507202404 18 0 0.0 0.0 0.00 0.00 0.00 34 1015.9
20260507201904 18 268 0.0 0.0 0.00 0.00 0.00 31 1015.9
20260507201404 18 291 0.0 0.0 0.00 0.00 0.00 31 1016.0
20260507200904 18 3 0.0 0.0 0.00 0.00 0.00 33 1016.0
20260507200404 18 339 0.0 0.0 0.00 0.00 0.00 33 1016.1
20260507195904 19 3 0.0 0.0 0.00 0.00 0.00 32 1016.1
20260507194905 19 39 0.0 0.0 0.00 0.00 0.00 34 1016.2
20260507193904 18 75 0.0 0.0 0.00 0.00 0.00 33 1016.4
20260507193404 18 4 0.0 0.0 0.00 0.00 0.00 31 1016.4
20260507192404 18 334 0.0 0.0 0.00 0.00 0.00 34 1016.4
20260507191904 18 296 0.0 0.0 0.00 0.00 0.00 32 1016.4
20260507191405 18 307 0.0 0.0 0.00 0.00 0.00 31 1016.5
20260507190404 17 38 0.0 0.0 0.00 0.00 0.00 33 1016.6
20260507185905 17 332 0.0 0.0 0.00 0.00 0.00 33 1016.6
20260507185404 17 329 0.0 0.0 0.00 0.00 0.00 31 1016.6
20260507184404 17 279 0.0 0.0 0.00 0.00 0.00 32 1016.7
20260507183904 17 356 0.0 0.0 0.00 0.00 0.00 32 1016.8
20260507182904 17 346 0.0 0.0 0.00 0.00 0.00 32 1016.7
20260507181904 17 323 0.0 0.0 0.00 0.00 0.00 33 1016.7
20260507181404 17 338 0.0 0.0 0.00 0.00 0.00 33 1016.7
20260507180904 16 139 0.0 0.0 0.00 0.00 0.00 34 1016.8
20260507180404 17 341 0.0 0.0 0.00 0.00 0.00 36 1017.0
20260507175904 17 345 0.0 0.0 0.00 0.00 0.00 34 1016.9
20260507175404 17 346 0.0 0.0 0.00 0.00 0.00 34 1017.0
20260507174904 17 0 0.0 0.0 0.00 0.00 0.00 38 1017.0
20260507173904 16 242 0.0 0.0 0.00 0.00 0.00 34 1017.2
20260507173404 16 358 0.0 0.0 0.00 0.00 0.00 38 1017.3
20260507172904 16 210 0.0 0.0 0.00 0.00 0.00 35 1017.4
20260507172404 16 358 0.0 0.0 0.00 0.00 0.00 34 1017.5
20260507171905 16 2 0.0 0.0 0.00 0.00 0.00 37 1017.4
20260507171404 16 352 0.0 0.0 0.00 0.00 0.00 35 1017.5
20260507170904 16 0 0.0 0.0 0.00 0.00 0.00 35 1017.5
20260507170404 16 325 0.0 0.0 0.00 0.00 0.00 36 1017.6
20260507165904 16 31 0.0 0.0 0.00 0.00 0.00 37 1017.6
20260507165404 16 8 0.0 0.0 0.00 0.00 0.00 39 1017.7
20260507164404 16 295 0.0 0.0 0.00 0.00 0.00 34 1017.7
20260507163904 16 297 0.0 0.0 0.00 0.00 0.00 34 1017.7
20260507163404 16 4 0.0 0.0 0.00 0.00 0.00 36 1017.7
20260507162904 16 9 0.0 0.0 0.00 0.00 0.00 38 1017.7
20260507162404 16 254 0.0 0.0 0.00 0.00 0.00 36 1017.9
20260507161904 16 265 0.0 0.0 0.00 0.00 0.00 36 1017.9
20260507161404 16 326 0.0 0.0 0.00 0.00 0.00 34 1017.9
20260507160904 16 16 0.0 0.0 0.00 0.00 0.00 38 1018.0
20260507160404 16 25 0.0 0.0 0.00 0.00 0.00 39 1017.9
20260507155404 15 304 0.0 0.0 0.00 0.00 0.00 39 1017.9
20260507154904 15 294 0.0 0.0 0.00 0.00 0.00 38 1018.0
20260507154404 15 324 0.0 0.0 0.00 0.00 0.00 38 1018.2
20260507153904 15 332 0.0 0.0 0.00 0.00 0.00 36 1018.3
20260507153404 15 323 0.0 0.0 0.00 0.00 0.00 34 1018.2
20260507152905 15 276 0.0 0.0 0.00 0.00 0.00 34 1018.2
20260507150904 15 21 0.0 0.0 0.00 0.00 0.00 37 1018.1
20260507150404 15 37 0.0 0.0 0.00 0.00 0.00 35 1018.1
20260507145904 15 16 0.0 0.0 0.00 0.00 0.00 37 1018.2
20260507144904 14 333 0.0 0.0 0.00 0.00 0.00 41 1018.2
20260507144404 14 31 0.0 0.0 0.00 0.00 0.00 40 1018.2
20260507143904 14 24 0.0 0.0 0.00 0.00 0.00 44 1018.1
20260507142904 13 25 0.0 0.0 0.00 0.00 0.00 48 1018.3
20260507142404 13 9 0.0 0.0 0.00 0.00 0.00 46 1018.3
20260507141904 12 48 0.0 0.0 0.00 0.00 0.00 49 1018.3
20260507141404 12 39 0.0 0.0 0.00 0.00 0.00 48 1018.3
20260507140903 12 45 0.0 0.0 0.00 0.00 0.00 49 1018.2
20260507140404 12 55 0.0 0.0 0.00 0.00 0.00 52 1018.2
20260507135905 11 31 0.0 0.0 0.00 0.00 0.00 52 1018.2
20260507135404 11 27 0.0 0.0 0.00 0.00 0.00 54 1018.3
20260507134904 11 23 0.0 0.0 0.00 0.00 0.00 53 1018.3
20260507133903 11 31 0.0 0.0 0.00 0.00 0.00 56 1018.2
20260507133404 10 29 0.0 0.0 0.00 0.00 0.00 55 1018.4
20260507132404 10 31 0.0 0.0 0.00 0.00 0.00 58 1018.2
20260507131906 10 67 0.0 0.0 0.00 0.00 0.00 60 1018.1
20260507130903 9 53 0.0 0.0 0.00 0.00 0.00 62 1018.0
20260507130404 8 67 0.0 0.0 0.00 0.00 0.00 63 1018.0
20260507125904 8 68 0.0 0.0 0.00 0.00 0.00 64 1017.9
20260507125404 8 38 0.0 0.0 0.00 0.00 0.00 69 1017.9
20260507124904 8 9 0.0 0.0 0.00 0.00 0.00 69 1018.0
20260507124404 7 10 0.0 0.0 0.00 0.00 0.00 72 1017.9
20260507123904 7 9 0.0 0.0 0.00 0.00 0.00 73 1017.9
20260507123404 7 9 0.0 0.0 0.00 0.00 0.00 74 1017.9
20260507122903 7 10 0.0 0.0 0.00 0.00 0.00 73 1017.8
20260507122404 7 10 0.0 0.0 0.00 0.00 0.00 74 1017.8
20260507121403 6 11 0.0 0.0 0.00 0.00 0.00 74 1017.8
20260507120904 6 7 0.0 0.0 0.00 0.00 0.00 75 1017.8
20260507120404 6 9 0.0 0.0 0.00 0.00 0.00 76 1017.7
20260507115903 6 9 0.0 0.0 0.00 0.00 0.00 76 1017.6
20260507114903 5 9 0.0 0.0 0.00 0.00 0.00 78 1017.6
20260507114404 5 9 0.0 0.0 0.00 0.00 0.00 78 1017.6
20260507113404 5 9 0.0 0.0 0.00 0.00 0.00 78 1017.5
20260507112904 5 9 0.0 0.0 0.00 0.00 0.00 78 1017.5
20260507111404 4 9 0.0 0.0 0.00 0.00 0.00 77 1017.5
20260507110903 4 9 0.0 0.0 0.00 0.00 0.00 77 1017.4
20260507105903 5 10 0.0 0.0 0.00 0.00 0.00 76 1017.5
20260507105404 5 9 0.0 0.0 0.00 0.00 0.00 76 1017.5
20260507104903 5 9 0.0 0.0 0.00 0.00 0.00 76 1017.5
20260507104404 5 9 0.0 0.0 0.00 0.00 0.00 76 1017.5
20260507103904 5 9 0.0 0.0 0.00 0.00 0.00 75 1017.5
20260507103403 5 9 0.0 0.0 0.00 0.00 0.00 75 1017.6
20260507102904 5 10 0.0 0.0 0.00 0.00 0.00 75 1017.6
20260507101904 5 9 0.0 0.0 0.00 0.00 0.00 74 1017.5
20260507101404 6 9 0.0 0.0 0.00 0.00 0.00 73 1017.6
20260507100903 6 10 0.0 0.0 0.00 0.00 0.00 74 1017.6
20260507095903 6 10 0.0 0.0 0.00 0.00 0.00 73 1017.6
20260507095404 6 10 0.0 0.0 0.00 0.00 0.00 74 1017.6
20260507094904 6 10 0.0 0.0 0.00 0.00 0.00 74 1017.4
20260507093904 6 10 0.0 0.0 0.00 0.00 0.00 74 1017.4
20260507093404 6 10 0.0 0.0 0.00 0.00 0.00 74 1017.4
20260507092903 6 11 0.0 0.0 0.00 0.00 0.00 75 1017.3
20260507092404 6 9 0.0 0.0 0.00 0.00 0.00 75 1017.2
20260507091904 6 6 0.0 0.0 0.00 0.00 0.00 75 1017.2
20260507090904 6 8 0.0 0.0 0.00 0.00 0.00 74 1017.1
20260507085905 7 12 0.0 0.0 0.00 0.00 0.00 74 1017.1
20260507085406 7 12 0.0 0.0 0.00 0.00 0.00 74 1017.1
20260507084905 7 12 0.0 0.0 0.00 0.00 0.00 74 1017.0
20260507084405 7 13 0.0 0.0 0.00 0.00 0.00 74 1017.0
20260507083905 7 12 0.0 0.0 0.00 0.00 0.00 74 1016.9
20260507083405 7 12 0.0 0.0 0.00 0.00 0.00 74 1016.9
20260507082905 7 12 0.0 0.0 0.00 0.00 0.00 74 1016.8
20260507082405 7 12 0.0 0.0 0.00 0.00 0.00 74 1016.8
20260507080405 7 12 0.0 0.0 0.00 0.00 0.00 74 1016.7
20260507075905 7 12 0.0 0.0 0.00 0.00 0.00 74 1016.6
20260507075406 7 12 0.0 0.0 0.00 0.00 0.00 74 1016.6
20260507073405 8 12 0.0 0.0 0.00 0.00 0.00 75 1016.4
20260507072405 8 12 0.0 0.0 0.00 0.00 0.00 75 1016.4
20260507071905 8 12 0.0 0.0 0.00 0.00 0.00 76 1016.3
20260507071405 8 12 0.0 0.0 0.00 0.00 0.00 76 1016.3
20260507070905 8 12 0.0 0.0 0.00 0.00 0.00 76 1016.4
20260507070405 8 12 0.0 0.0 0.00 0.00 0.00 76 1016.4
20260507065906 8 12 0.0 0.0 0.00 0.00 0.00 76 1016.4
20260507065405 8 12 0.0 0.0 0.00 0.00 0.00 76 1016.4
20260507064905 8 12 0.0 0.0 0.00 0.00 0.00 76 1016.5
20260507064405 8 12 0.0 0.0 0.00 0.00 0.00 76 1016.4
20260507063905 8 12 0.0 0.0 0.00 0.00 0.00 76 1016.5
20260507063405 8 12 0.0 0.0 0.00 0.00 0.00 76 1016.5
20260507062905 8 12 0.0 0.0 0.00 0.00 0.00 76 1016.5
20260507062406 8 12 0.0 0.0 0.00 0.00 0.00 76 1016.6
20260507061905 8 12 0.0 0.0 0.00 0.00 0.00 76 1016.7
20260507061405 8 12 0.0 0.0 0.00 0.00 0.00 76 1016.6
20260507060905 8 12 0.0 0.0 0.00 0.00 0.00 75 1016.6
20260507060404 8 12 0.0 0.0 0.00 0.00 0.00 75 1016.7
20260507055404 9 13 0.0 0.0 0.00 0.00 0.00 75 1016.6
20260507054905 9 12 0.0 0.0 0.00 0.00 0.00 75 1016.6
20260507054404 9 12 0.0 0.0 0.00 0.00 0.00 75 1016.5
20260507053405 9 12 0.0 0.0 0.00 0.00 0.00 76 1016.7
20260507052905 9 13 0.0 0.0 0.00 0.00 0.00 76 1016.7
20260507052405 9 12 0.0 0.0 0.00 0.00 0.00 77 1016.8
20260507051905 9 12 0.0 0.0 0.00 0.00 0.00 77 1016.9
20260507051405 9 7 0.0 0.0 0.00 0.00 0.00 77 1016.9
20260507050905 9 12 0.0 0.0 0.00 0.00 0.00 77 1016.8
20260507050405 9 13 0.0 0.0 0.00 0.00 0.00 77 1016.8
20260507045905 9 12 0.0 0.0 0.00 0.00 0.00 77 1016.8
20260507045405 9 12 0.0 0.0 0.00 0.00 0.00 77 1016.6
20260507044905 9 11 0.0 0.0 0.00 0.00 0.00 77 1016.5
20260507044405 9 13 0.0 0.0 0.00 0.00 0.00 78 1016.4
20260507043905 9 13 0.0 0.0 0.00 0.00 0.00 78 1016.5
20260507042905 9 5 0.0 0.0 0.00 0.00 0.00 78 1016.7
20260507042405 9 8 0.0 0.0 0.00 0.00 0.00 78 1016.6
20260507041905 9 11 0.0 0.0 0.00 0.00 0.00 78 1016.5
20260507041405 9 14 0.0 0.0 0.00 0.00 0.00 78 1016.3
20260507040905 9 12 0.0 0.0 0.00 0.00 0.00 78 1016.3
20260507040405 10 9 0.0 0.0 0.00 0.00 0.00 77 1016.4
20260507035905 9 9 0.0 0.0 0.00 0.00 0.00 77 1016.4
20260507035405 9 13 0.0 0.0 0.00 0.00 0.00 77 1016.5
20260507034404 9 8 0.0 0.0 0.00 0.00 0.00 76 1016.6
20260507033905 9 15 0.0 0.0 0.00 0.00 0.00 76 1016.5
20260507033405 9 15 0.0 0.0 0.00 0.00 0.00 75 1016.6
20260507032906 9 15 0.0 0.0 0.00 0.00 0.00 74 1016.6
20260507032405 9 15 0.0 0.0 0.00 0.00 0.00 74 1016.6
20260507031905 9 15 0.0 0.0 0.00 0.00 0.00 74 1016.6
20260507030905 10 15 0.0 0.0 0.00 0.00 0.00 74 1016.7
20260507030405 10 15 0.0 0.0 0.00 0.00 0.00 74 1016.8
20260507025905 10 15 0.0 0.0 0.00 0.00 0.00 74 1016.7
20260507024905 10 15 0.0 0.0 0.00 0.00 0.00 72 1016.8
20260507024405 10 15 0.0 0.0 0.00 0.00 0.00 72 1016.7
20260507023905 10 14 0.0 0.0 0.00 0.00 0.00 72 1016.5
20260507023405 10 15 0.0 0.0 0.00 0.00 0.00 72 1016.5
20260507022904 10 15 0.0 0.0 0.00 0.00 0.00 72 1016.6
20260507021905 10 15 0.0 0.0 0.00 0.00 0.00 71 1016.6
20260507021405 10 15 0.0 0.0 0.00 0.00 0.00 70 1016.5
20260507020905 11 15 0.0 0.0 0.00 0.00 0.00 70 1016.4
20260507020405 11 15 0.0 0.0 0.00 0.00 0.00 70 1016.4
20260507015405 11 15 0.0 0.0 0.00 0.00 0.00 69 1016.3
20260507014904 11 15 0.0 0.0 0.00 0.00 0.00 68 1016.2
20260507014405 11 15 0.0 0.0 0.00 0.00 0.00 68 1016.1
20260507013904 11 15 0.0 0.0 0.00 0.00 0.00 67 1016.2
20260507013405 12 15 0.0 0.0 0.00 0.00 0.00 66 1016.0
20260507011904 12 15 0.0 0.0 0.00 0.00 0.00 65 1015.4
20260507011405 12 15 0.0 0.0 0.00 0.00 0.00 64 1015.5
20260507005905 13 15 0.0 0.0 0.00 0.00 0.00 63 1015.4
20260507005405 13 15 0.0 0.0 0.00 0.00 0.00 62 1015.3
20260507004904 13 13 0.0 0.0 0.00 0.00 0.00 61 1015.2
20260507003904 14 10 0.0 0.0 0.00 0.00 0.00 61 1015.3
20260507003405 14 13 0.0 0.0 0.00 0.00 0.00 61 1015.4
20260507002905 14 13 0.0 0.0 0.00 0.00 0.00 60 1015.3
20260507002404 14 14 0.0 0.0 0.00 0.00 0.00 59 1015.2
20260507001404 15 14 0.0 0.0 0.00 0.00 0.00 58 1015.2
20260507000905 15 14 0.0 0.0 0.00 0.00 0.00 57 1015.2
20260507000406 15 14 0.0 0.0 0.00 0.00 0.00 56 1015.0
20260506235905 15 14 0.0 0.0 0.00 0.00 0.00 55 1015.1
20260506235404 15 14 0.0 0.0 0.00 0.00 0.00 54 1014.9
20260506233904 16 38 0.0 0.0 0.00 0.00 0.00 53 1014.8
20260506233404 16 27 0.0 0.0 0.00 0.00 0.00 51 1014.9
20260506232905 16 40 0.0 0.0 0.00 0.00 0.00 51 1015.0
20260506232405 16 10 0.0 0.0 0.00 0.00 0.00 52 1015.0
20260506231404 16 329 0.0 0.0 0.00 0.00 0.00 51 1014.9
20260506230404 16 348 0.0 0.0 0.00 0.00 0.00 51 1014.8
20260506225904 16 305 0.0 0.0 0.00 0.00 0.00 52 1015.0
20260506225405 15 315 0.0 9.7 0.00 0.00 0.00 52 1015.0
20260506224405 15 44 1.6 11.3 0.00 0.00 0.00 51 1015.1
20260506223905 15 350 1.6 8.0 0.00 0.00 0.00 49 1015.0
20260506223404 16 348 0.0 8.0 0.00 0.00 0.00 53 1015.0
20260506222904 16 6 0.0 1.6 0.00 0.00 0.00 57 1015.2
20260506222405 15 341 0.0 4.8 0.00 0.00 0.00 57 1015.2
20260506221905 15 333 0.0 8.0 0.00 0.00 0.00 55 1015.1
20260506221405 15 343 1.6 9.7 0.00 0.00 0.00 54 1015.2